Flag for Liberia Weather past 2 weeks in Gbarnga, Liberia

Now
79 °F

Partly sunny.


Feels Like: 82 °F
Forecast: 68 / 75 °F
Wind: 13 mph from Southwest

Location: Roberts Field

Current Time: Aug 21, 2014 at 11:23:26 AM

Latest Report: Aug 21, 2014 at 11:00 AM


Visibility: N/A

Pressure: 29.98 "Hg

Humidity: 89%

Dew point: 75 °F

Location of GbarngaLocation

Historic Weather in Gbarnga — Graph

°F

Gbarnga temperature yesterday

Maximum temperature yesterday: 82 °F (at 12:00 PM)
Minimum temperature yesterday: 73 °F (at 1:00 PM)
Average temperature yesterday: 77 °F

Past Weeks' High & Low Weather Summary

 TemperatureHumidityPressure
High82 °F (Aug 15, 2:30 PM)100% (Aug 6, 10:00 AM)30.04 "Hg (Aug 6, 10:00 AM)
Low72 °F (Aug 18, 6:00 AM)74% (Aug 11, 4:30 PM)29.89 "Hg (Aug 6, 5:30 PM)
Average76 °F91%29.96 "Hg
* Reported Aug 6 10:00 AM — Aug 21 10:00 AM, Gbarnga, Weather by CustomWeather, © 2014

Note: Actual official high and low records may vary slightly from our data, if they occured in-between our weather recording intervals... More about our weather records

Advertising

Gbarnga weather history for previous 24 hours

 ConditionsComfort  
Time TempWeatherWind HumidityBarometerVisibility
10:00 AM
Aug 21
75 °FDrizzle. Mostly cloudy.3 mph94%30.01 "Hg4 mi
9:30 AM75 °FRain. Mostly cloudy.No wind94%29.98 "Hg2 mi
9:00 AM75 °FRain. Mostly cloudy.No wind94%29.98 "Hg2 mi
8:30 AM75 °FDrizzle. Mostly cloudy.3 mph94%29.98 "Hg3 mi
8:00 AM75 °FDrizzle. Broken clouds.5 mph94%29.98 "Hg5 mi
7:30 AM75 °FDrizzle. Mostly cloudy.3 mph94%29.98 "Hg6 mi
7:00 AM77 °FRain. Passing clouds.3 mph94%29.95 "HgN/A
6:30 AM77 °FPassing clouds.12 mph94%29.95 "Hg5 mi
6:00 AM77 °FPassing clouds.6 mph94%29.95 "HgN/A
3:30 AM77 °FPassing clouds.10 mph94%29.92 "HgN/A
3:00 AM77 °FPassing clouds.12 mph94%29.92 "HgN/A
2:30 AM77 °FPassing clouds.8 mph94%29.92 "HgN/A
2:00 AM77 °FPassing clouds.6 mph94%29.92 "HgN/A
1:00 AM77 °FPassing clouds.3 mph94%29.95 "HgN/A
12:30 AM77 °FPassing clouds.5 mph94%29.95 "HgN/A
12:00 AM77 °FPassing clouds.6 mph94%29.98 "HgN/A
11:30 PM
Aug 20
77 °FPassing clouds.No wind94%29.98 "HgN/A
11:00 PM77 °FPassing clouds.6 mph94%29.98 "HgN/A
10:00 PM77 °FPassing clouds.9 mph94%29.98 "HgN/A
9:00 PM77 °FPassing clouds.No wind94%29.95 "HgN/A
8:00 PM77 °FPassing clouds.No wind94%29.92 "HgN/A
7:30 PM77 °FPartly sunny.No wind94%29.92 "HgN/A
6:30 PM77 °FPartly sunny.No wind94%29.89 "HgN/A
6:00 PM79 °FPartly sunny.No wind89%29.89 "HgN/A
5:30 PM79 °FPartly sunny.No wind89%29.89 "HgN/A
4:30 PM79 °FPartly sunny.12 mph89%29.89 "HgN/A
4:00 PM79 °FThunderstorms. Partly sunny.6 mph94%29.89 "HgN/A
3:30 PM75 °FThunderstorms. Partly sunny.No wind94%29.89 "Hg5 mi
3:00 PM75 °FThunderstorms. Broken clouds.No wind94%29.92 "Hg5 mi
2:30 PM73 °FThunderstorms. Broken clouds.No wind94%29.92 "Hg5 mi
2:00 PM73 °FThunderstorms. Broken clouds.No wind94%29.92 "Hg5 mi
1:30 PM73 °FThunderstorms. Mostly cloudy.No wind94%29.95 "Hg5 mi
1:00 PM73 °FStrong thunderstorms. Mostly cloudy.10 mph94%29.95 "Hg2 mi
12:30 PM79 °FSprinkles. Partly sunny.5 mph89%29.95 "Hg5 mi
12:00 PM82 °FPartly sunny.No wind79%29.98 "HgN/A
11:30 AM81 °FPartly sunny.No wind84%29.98 "HgN/A
11:00 AM79 °FLight rain. Partly sunny.No wind89%29.98 "Hg5 mi
Weather by CustomWeather, © 2014

See weather overviewHow to use our weather pages